| time (UTC) | temp F | wind direction | speed MPH | gust MPH | rain 1hr in | rain 24hr in | rain mn in | humidity % | barometer mb |
| 20260502181419 | 54 | 203 | 11.0 | 15.0 | 0.00 | 0.00 | 0.00 | 74 | 1008.7 |
| 20260502180418 | 54 | 203 | 9.0 | 13.0 | 0.00 | 0.00 | 0.00 | 72 | 1008.5 |
| 20260502170420 | 56 | 203 | 10.0 | 13.0 | 0.00 | 0.00 | 0.00 | 67 | 1009.0 |
| 20260502163420 | 57 | 180 | 11.0 | 15.0 | 0.00 | 0.00 | 0.00 | 65 | 1009.1 |
| 20260502162419 | 58 | 180 | 11.0 | 17.0 | 0.00 | 0.00 | 0.00 | 64 | 1009.3 |
| 20260502161419 | 59 | 158 | 10.0 | 14.0 | 0.00 | 0.00 | 0.00 | 63 | 1009.3 |
| 20260502160439 | 58 | 180 | 9.0 | 12.0 | 0.00 | 0.00 | 0.00 | 65 | 1009.4 |
| 20260502151419 | 59 | 158 | 14.0 | 16.0 | 0.00 | 0.00 | 0.00 | 72 | 1009.8 |
| 20260502150420 | 59 | 158 | 10.0 | 14.0 | 0.00 | 0.00 | 0.00 | 73 | 1009.9 |
| 20260502130418 | 58 | 158 | 9.0 | 13.0 | 0.00 | 0.00 | 0.00 | 71 | 1011.3 |
| 20260502123418 | 57 | 158 | 10.0 | 14.0 | 0.00 | 0.00 | 0.00 | 73 | 1011.7 |
| 20260502122418 | 57 | 180 | 11.0 | 17.0 | 0.00 | 0.00 | 0.00 | 73 | 1011.8 |
| 20260502121418 | 57 | 180 | 8.0 | 10.0 | 0.00 | 0.00 | 0.00 | 74 | 1012.0 |
| 20260502120419 | 57 | 180 | 12.0 | 16.0 | 0.00 | 0.00 | 0.00 | 73 | 1012.2 |
| 20260502115418 | 57 | 180 | 11.0 | 15.0 | 0.00 | 0.00 | 0.00 | 74 | 1012.3 |
| 20260502114459 | 57 | 158 | 11.0 | 15.0 | 0.00 | 0.00 | 0.00 | 75 | 1012.2 |
| 20260502113418 | 57 | 158 | 11.0 | 15.0 | 0.00 | 0.00 | 0.00 | 75 | 1012.4 |
| 20260502112458 | 57 | 203 | 10.0 | 15.0 | 0.00 | 0.00 | 0.00 | 75 | 1012.5 |
| 20260502111418 | 56 | 180 | 12.0 | 14.0 | 0.00 | 0.00 | 0.00 | 76 | 1012.6 |
| 20260502110440 | 56 | 158 | 11.0 | 16.0 | 0.00 | 0.00 | 0.00 | 75 | 1012.7 |
| 20260502105420 | 56 | 180 | 11.0 | 15.0 | 0.00 | 0.00 | 0.00 | 76 | 1012.7 |
| 20260502104420 | 56 | 180 | 10.0 | 14.0 | 0.00 | 0.00 | 0.00 | 75 | 1012.7 |
| 20260502103420 | 56 | 180 | 9.0 | 13.0 | 0.00 | 0.00 | 0.00 | 74 | 1012.7 |
| 20260502101420 | 57 | 203 | 11.0 | 14.0 | 0.00 | 0.00 | 0.00 | 74 | 1012.9 |
| 20260502100420 | 57 | 203 | 10.0 | 13.0 | 0.00 | 0.00 | 0.00 | 73 | 1012.9 |
| 20260502091419 | 56 | 203 | 13.0 | 16.0 | 0.00 | 0.00 | 0.00 | 74 | 1013.2 |
| 20260502090419 | 56 | 180 | 9.0 | 12.0 | 0.00 | 0.00 | 0.00 | 75 | 1013.2 |
| 20260502071419 | 54 | 158 | 12.0 | 16.0 | 0.00 | 0.00 | 0.00 | 79 | 1013.6 |
| 20260502070419 | 54 | 158 | 14.0 | 17.0 | 0.00 | 0.00 | 0.00 | 79 | 1013.7 |
| 20260502065418 | 54 | 158 | 14.0 | 18.0 | 0.00 | 0.00 | 0.00 | 79 | 1013.7 |
| 20260502064418 | 54 | 158 | 10.0 | 15.0 | 0.00 | 0.00 | 0.00 | 79 | 1013.8 |
| 20260502063438 | 53 | 0 | 11.0 | 16.0 | 0.00 | 0.00 | 0.00 | 80 | 1013.9 |
| 20260502062418 | 53 | 0 | 12.0 | 15.0 | 0.00 | 0.00 | 0.00 | 80 | 1014.0 |
| 20260502061438 | 53 | 135 | 12.0 | 16.0 | 0.00 | 0.00 | 0.00 | 79 | 1014.0 |
| 20260502060418 | 53 | 0 | 10.0 | 14.0 | 0.00 | 0.00 | 0.00 | 78 | 1014.1 |
| 20260502055419 | 53 | 0 | 9.0 | 13.0 | 0.00 | 0.00 | 0.00 | 78 | 1014.1 |
| 20260502054439 | 53 | 0 | 11.0 | 15.0 | 0.00 | 0.00 | 0.00 | 78 | 1014.2 |
| 20260502053438 | 53 | 158 | 12.0 | 16.0 | 0.00 | 0.00 | 0.00 | 78 | 1014.2 |
| 20260502052418 | 53 | 135 | 9.0 | 13.0 | 0.00 | 0.00 | 0.00 | 78 | 1014.3 |
| 20260502051418 | 52 | 158 | 11.0 | 14.0 | 0.00 | 0.00 | 0.00 | 79 | 1014.4 |
| 20260502050419 | 51 | 135 | 8.0 | 12.0 | 0.00 | 0.00 | 0.00 | 80 | 1014.5 |
| 20260502045500 | 51 | 135 | 6.0 | 10.0 | 0.00 | 0.00 | 0.00 | 81 | 1014.6 |
| 20260502044438 | 50 | 135 | 8.0 | 10.0 | 0.00 | 0.00 | 0.00 | 81 | 1014.7 |
| 20260502043440 | 50 | 135 | 8.0 | 11.0 | 0.00 | 0.00 | 0.00 | 82 | 1014.8 |
| 20260502042420 | 50 | 135 | 9.0 | 11.0 | 0.00 | 0.00 | 0.00 | 82 | 1014.9 |
| 20260502041419 | 50 | 135 | 11.0 | 14.0 | 0.00 | 0.00 | 0.00 | 82 | 1015.1 |
| 20260502040420 | 50 | 158 | 11.0 | 12.0 | 0.00 | 0.00 | 0.00 | 81 | 1015.3 |
| 20260502035420 | 50 | 135 | 12.0 | 15.0 | 0.00 | 0.00 | 0.00 | 81 | 1015.4 |
| 20260502034420 | 49 | 158 | 12.0 | 14.0 | 0.00 | 0.00 | 0.00 | 81 | 1015.5 |
| 20260502033419 | 49 | 135 | 11.0 | 13.0 | 0.00 | 0.00 | 0.00 | 81 | 1015.6 |
| 20260502032419 | 49 | 158 | 9.0 | 11.0 | 0.00 | 0.00 | 0.00 | 80 | 1015.8 |
| 20260502031419 | 49 | 158 | 9.0 | 11.0 | 0.00 | 0.00 | 0.00 | 80 | 1016.0 |
| 20260502030420 | 49 | 158 | 11.0 | 12.0 | 0.00 | 0.00 | 0.00 | 78 | 1016.1 |
| 20260502025419 | 51 | 158 | 10.0 | 11.0 | 0.00 | 0.00 | 0.00 | 75 | 1016.3 |
| 20260502024419 | 51 | 180 | 9.0 | 11.0 | 0.00 | 0.00 | 0.00 | 72 | 1016.4 |
| 20260502023439 | 51 | 158 | 8.0 | 11.0 | 0.00 | 0.00 | 0.00 | 72 | 1016.7 |
| 20260502022419 | 51 | 180 | 10.0 | 14.0 | 0.00 | 0.00 | 0.00 | 69 | 1016.8 |
| 20260502021419 | 52 | 180 | 11.0 | 15.0 | 0.00 | 0.00 | 0.00 | 65 | 1017.0 |
| 20260502020419 | 52 | 203 | 10.0 | 14.0 | 0.00 | 0.00 | 0.00 | 66 | 1017.0 |
| 20260502015419 | 52 | 203 | 12.0 | 16.0 | 0.00 | 0.00 | 0.00 | 65 | 1017.1 |
| 20260502014419 | 51 | 180 | 10.0 | 14.0 | 0.00 | 0.00 | 0.00 | 71 | 1017.2 |
| 20260502013419 | 51 | 180 | 12.0 | 17.0 | 0.00 | 0.00 | 0.00 | 73 | 1017.4 |
| 20260502012419 | 50 | 180 | 11.0 | 13.0 | 0.00 | 0.00 | 0.00 | 77 | 1017.6 |
| 20260502011418 | 49 | 180 | 9.0 | 13.0 | 0.00 | 0.00 | 0.00 | 78 | 1017.7 |
| 20260502010418 | 50 | 180 | 10.0 | 13.0 | 0.00 | 0.00 | 0.00 | 78 | 1017.7 |
| 20260502005419 | 50 | 180 | 7.0 | 11.0 | 0.00 | 0.00 | 0.00 | 77 | 1017.8 |
| 20260502004418 | 50 | 180 | 10.0 | 16.0 | 0.00 | 0.00 | 0.00 | 76 | 1017.8 |
| 20260502003418 | 51 | 180 | 9.0 | 13.0 | 0.00 | 0.00 | 0.00 | 75 | 1018.0 |
| 20260502002418 | 51 | 180 | 8.0 | 11.0 | 0.00 | 0.00 | 0.00 | 73 | 1018.1 |
| 20260502001418 | 52 | 180 | 11.0 | 15.0 | 0.00 | 0.00 | 0.00 | 70 | 1018.1 |
| 20260502000418 | 52 | 180 | 10.0 | 14.0 | 0.00 | 0.00 | 0.00 | 70 | 1018.2 |
| 20260501235418 | 51 | 180 | 11.0 | 13.0 | 0.00 | 0.00 | 0.00 | 71 | 1018.3 |
| 20260501234418 | 52 | 203 | 10.0 | 12.0 | 0.00 | 0.00 | 0.00 | 68 | 1018.4 |
| 20260501233418 | 52 | 203 | 12.0 | 17.0 | 0.00 | 0.00 | 0.00 | 68 | 1018.6 |
| 20260501232418 | 52 | 203 | 11.0 | 14.0 | 0.00 | 0.00 | 0.00 | 70 | 1018.7 |
| 20260501231420 | 52 | 203 | 12.0 | 16.0 | 0.00 | 0.00 | 0.00 | 71 | 1018.8 |
| 20260501230500 | 52 | 203 | 10.0 | 12.0 | 0.00 | 0.00 | 0.00 | 71 | 1018.9 |
| 20260501225420 | 52 | 203 | 11.0 | 15.0 | 0.00 | 0.00 | 0.00 | 71 | 1019.0 |
| 20260501224440 | 52 | 203 | 13.0 | 17.0 | 0.00 | 0.00 | 0.00 | 72 | 1019.1 |
| 20260501223419 | 52 | 203 | 12.0 | 16.0 | 0.00 | 0.00 | 0.00 | 72 | 1019.2 |
| 20260501222420 | 52 | 203 | 13.0 | 15.0 | 0.00 | 0.00 | 0.00 | 70 | 1019.4 |
| 20260501221440 | 53 | 203 | 14.0 | 17.0 | 0.00 | 0.00 | 0.00 | 68 | 1019.3 |
| 20260501220420 | 53 | 203 | 14.0 | 17.0 | 0.00 | 0.00 | 0.00 | 67 | 1019.3 |
| 20260501215418 | 53 | 203 | 13.0 | 16.0 | 0.00 | 0.00 | 0.00 | 68 | 1019.4 |
| 20260501214418 | 53 | 203 | 14.0 | 18.0 | 0.00 | 0.00 | 0.00 | 67 | 1019.5 |
| 20260501213418 | 52 | 180 | 13.0 | 18.0 | 0.00 | 0.00 | 0.00 | 69 | 1019.5 |
| 20260501212419 | 52 | 180 | 10.0 | 14.0 | 0.00 | 0.00 | 0.00 | 69 | 1019.6 |
| 20260501211420 | 53 | 203 | 14.0 | 19.0 | 0.00 | 0.00 | 0.00 | 69 | 1019.7 |
| 20260501210419 | 53 | 180 | 14.0 | 18.0 | 0.00 | 0.00 | 0.00 | 67 | 1019.8 |
| 20260501205419 | 53 | 180 | 14.0 | 21.0 | 0.00 | 0.00 | 0.00 | 69 | 1019.8 |
| 20260501204419 | 53 | 180 | 13.0 | 17.0 | 0.00 | 0.00 | 0.00 | 71 | 1019.9 |
| 20260501203418 | 53 | 180 | 13.0 | 17.0 | 0.00 | 0.00 | 0.00 | 71 | 1020.0 |
| 20260501202419 | 53 | 203 | 12.0 | 15.0 | 0.00 | 0.00 | 0.00 | 70 | 1020.1 |
| 20260501201419 | 53 | 180 | 11.0 | 17.0 | 0.00 | 0.00 | 0.00 | 71 | 1020.1 |
| 20260501200419 | 54 | 180 | 12.0 | 15.0 | 0.00 | 0.00 | 0.00 | 68 | 1020.3 |
| 20260501195439 | 54 | 180 | 14.0 | 18.0 | 0.00 | 0.00 | 0.00 | 67 | 1020.3 |
| 20260501194439 | 53 | 180 | 14.0 | 18.0 | 0.00 | 0.00 | 0.00 | 69 | 1020.4 |
| 20260501193439 | 53 | 180 | 14.0 | 18.0 | 0.00 | 0.00 | 0.00 | 69 | 1020.4 |
| 20260501192418 | 53 | 180 | 10.0 | 14.0 | 0.00 | 0.00 | 0.00 | 70 | 1020.5 |
| 20260501191419 | 53 | 180 | 12.0 | 16.0 | 0.00 | 0.00 | 0.00 | 68 | 1020.4 |
| 20260501190419 | 53 | 180 | 13.0 | 19.0 | 0.00 | 0.00 | 0.00 | 67 | 1020.5 |
| 20260501185418 | 53 | 180 | 11.0 | 15.0 | 0.00 | 0.00 | 0.00 | 67 | 1020.7 |
| 20260501184418 | 53 | 180 | 12.0 | 16.0 | 0.00 | 0.00 | 0.00 | 69 | 1020.7 |
| 20260501183438 | 52 | 0 | 11.0 | 14.0 | 0.00 | 0.00 | 0.00 | 73 | 1020.8 |
| 20260501182418 | 53 | 0 | 13.0 | 18.0 | 0.00 | 0.00 | 0.00 | 72 | 1020.8 |